{"data":{"norad_id":48470,"epoch":"2026-09-19T22:33:04.197888Z","epoch_age_seconds":85703,"freshness":"FRESH","line1":"1 48470U 21040AU  26262.93963192 -.00000473  00000+0 -34836-5 0  9994","line2":"2 48470  53.1608   7.0390 0001046  98.8624 261.2496 15.31706736296269","mean_motion":15.31706736,"eccentricity":0.0001046,"inclination_deg":53.1608,"raan_deg":7.039,"arg_perigee_deg":98.8624,"mean_anomaly_deg":261.2496,"bstar":-3.4836e-6,"rev_number":29626,"period_min":94.012774518477,"perigee_km":470.00352520037,"apogee_km":471.43630606712,"semimajor_km":6848.8569156337,"source":"CELESTRAK","updated_at":"2026-09-20T09:00:39.129355Z"}}